User: anonymous   Login
Location: Muenchen
(48.1800°N, 11.5800°E)
Time: 16:07:16
(UTC+02:00)
Language:

Sich 1 Rocket - Orbit

View from above orbital plane
View from above orbital plane
View from above satellite
View from above satellite

Ground track
Ground track

The orbit data is extracted from the following two-line orbital elements,

1 23659U 95046C   15243.36569852  .00000174  00000-0  20763-4 0  9992
2 23659 082.5315 193.9078 0024747 216.2950 302.8952 14.78091671 77666
Epoch (UTC): 31 August 2015 08:46:36
Eccentricity: 0.0024747
inclination: 82.5315°
perigee height: 618 km
apogee height: 653 km
right ascension of ascending node: 193.9078°
argument of perigee: 216.2950°
revolutions per day: 14.78091671
mean anomaly at epoch: 302.8952°
orbit number at epoch: 7766

The dashed part of the orbit path shows where the satellite is in the earth's shadow,  

DLR